Flag for Cuba Weather past 2 weeks in Holguín, Cuba

Now
97 °F

Scattered clouds.


Feels Like: 96 °F
Forecast: 73 / 93 °F
Wind: 5 mph from North

Location: Holguin Civ / Mil

Current Time: Apr 21, 2015 at 3:16:05 PM

Latest Report: Apr 21, 2015 at 2:50 PM


Visibility: 6 mi

Pressure: 29.92 "Hg

Humidity: 27%

Dew point: 57 °F

Location of HolguínLocation

Historic Weather in Holguín — Graph

°F

Holguín temperature yesterday

Maximum temperature yesterday: 97 °F (at 2:50 PM)
Minimum temperature yesterday: 72 °F (at 6:50 AM)
Average temperature yesterday: 83 °F

Past Weeks' High & Low Weather Summary

 TemperatureHumidityPressure
High97 °F (Apr 20, 2:50 PM)94% (Apr 7, 12:52 AM)30.09 "Hg (Apr 7, 12:52 AM)
Low68 °F (Apr 7, 6:51 AM)25% (Apr 20, 4:51 PM)29.83 "Hg (Apr 20, 4:51 PM)
Average81 °F61%30.01 "Hg
* Reported Apr 6 1:50 PM — Apr 21 1:51 PM, Holguín, Weather by CustomWeather, © 2015

Note: Actual official high and low records may vary slightly from our data, if they occured in-between our weather recording intervals... More about our weather records

Advertising

Holguín weather history for previous 24 hours

 ConditionsComfort  
Time TempWeatherWind HumidityBarometerVisibility
1:51 PM
Tue, Apr 21
95 °FPartly sunny.8 mph30%29.95 "Hg6 mi
12:51 PM93 °FScattered clouds.9 mph34%29.98 "Hg6 mi
11:50 AM91 °FPassing clouds.8 mph38%30.01 "Hg6 mi
10:51 AM88 °FPassing clouds.7 mph49%30.04 "Hg6 mi
9:50 AM84 °FPassing clouds.8 mph58%30.04 "Hg6 mi
8:50 AM81 °FPassing clouds.5 mph66%30.01 "Hg6 mi
7:51 AM75 °FPassing clouds.5 mph78%30.01 "Hg6 mi
6:50 AM72 °FPassing clouds.5 mph88%29.98 "Hg5 mi
5:50 AM73 °FPassing clouds.5 mph83%29.98 "Hg5 mi
4:50 AM73 °FPassing clouds.5 mph83%29.95 "Hg5 mi
3:50 AM75 °FPassing clouds.6 mph78%29.95 "Hg5 mi
2:50 AM75 °FPassing clouds.6 mph78%29.95 "Hg5 mi
1:50 AM75 °FPassing clouds.6 mph78%29.95 "Hg5 mi
12:50 AM77 °FPassing clouds.6 mph79%29.98 "Hg6 mi
11:50 PM
Mon, Apr 20
77 °FPassing clouds.5 mph74%29.98 "Hg6 mi
10:50 PM79 °FPassing clouds.8 mph70%29.98 "Hg6 mi
9:50 PM79 °FPassing clouds.8 mph70%29.95 "Hg6 mi
8:51 PM81 °FPassing clouds.3 mph62%29.95 "Hg6 mi
7:52 PM84 °FScattered clouds.10 mph55%29.92 "Hg6 mi
6:51 PM88 °FScattered clouds.12 mph46%29.89 "Hg6 mi
5:50 PM93 °FScattered clouds.13 mph36%29.83 "Hg6 mi
4:51 PM97 °FScattered clouds.8 mph25%29.83 "HgN/A
3:50 PM95 °FScattered clouds.10 mph30%29.86 "HgN/A
Weather by CustomWeather, © 2015

See weather overviewHow to use our weather pages